Terminal Aerodrome Forecast
Issued by NWS Albany, NY

Home | Current Version | Previous Version | Text Only | Print | Product List | Glossary On
Versions: 1 2 3 4 5 6 7 8 9 10 11 12 13 14 15 16 17 18 19 20 21 22
000
FTUS41 KALY 171700
TAFALB
TAF
KALB 171738Z 1718/1818 30005KT P6SM SCT050
      TEMPO 1718/1722 BKN050
     FM172300 VRB03KT P6SM SKC
     FM181000 00000KT P6SM BKN100
     FM181500 32007KT P6SM BKN060=

USA.gov is the U.S. government's official web portal to all federal, state and local government web resources and services.